Location: Béaulencourt
(50.0796°N, 2.8795°E)
Time: 04:15:14
(UTC+00:00)

Cosmos 676 Rocket - Visible Passes

Search period start: 21 April 2026 00:00
Search period end: 01 May 2026 00:00
Orbit: 749 x 780 km, 74.0° (Epoch: 20 April)

Date Brightness Start Highest point End Pass type
(mag) Time Alt. Az. Time Alt. Az. Time Alt. Az.
21 Apr 5.6 00:12:43 10° NW 00:15:54 24° W 00:15:54 24° W visible
21 Apr 5.0 21:52:09 10° N 21:57:00 35° NE 21:58:13 31° E visible
21 Apr 4.8 23:34:09 10° NW 23:38:24 40° W 23:38:24 40° W visible
22 Apr 5.6 21:14:16 10° N 21:18:32 24° NE 21:20:45 18° E visible
22 Apr 4.0 22:55:47 10° NNW 23:00:56 68° W 23:00:56 68° W visible
23 Apr 6.0 20:36:32 10° N 20:39:57 17° NE 20:43:18 10° E visible
23 Apr 3.9 22:17:35 10° NNW 22:22:53 77° ENE 22:23:29 67° ESE visible
24 Apr 5.9 00:00:48 10° NW 00:03:40 17° W 00:03:40 17° W visible
24 Apr 6.3 19:59:12 10° NNE 20:01:15 12° NE 20:03:17 10° ENE visible
24 Apr 4.5 21:39:29 10° NNW 21:44:38 49° ENE 21:46:03 38° ESE visible
24 Apr 5.3 23:21:55 10° NW 23:26:14 28° W 23:26:14 28° W visible
25 Apr 5.1 21:01:31 10° N 21:06:15 32° NE 21:08:38 22° E visible
25 Apr 4.5 22:43:23 10° NW 22:48:25 46° WSW 22:48:49 45° WSW visible
26 Apr 5.6 20:23:39 10° N 20:27:45 22° NE 20:31:14 12° E visible
26 Apr 4.0 22:05:04 10° NNW 22:10:21 75° WSW 22:11:26 56° S visible
26 Apr 6.3 23:49:36 10° WNW 23:51:21 12° W 23:51:37 12° W visible
27 Apr 6.0 19:45:59 10° N 19:49:08 16° NE 19:52:16 10° ENE visible
27 Apr 4.0 21:26:54 10° NNW 21:32:10 69° ENE 21:34:03 39° SE visible
27 Apr 5.8 23:09:54 10° NW 23:13:35 20° W 23:14:15 19° WSW visible
28 Apr 4.6 20:48:50 10° NNW 20:53:53 44° ENE 20:56:42 23° ESE visible
28 Apr 5.1 22:31:07 10° NW 22:35:43 32° W 22:36:54 28° SW visible
29 Apr 5.2 20:10:52 10° N 20:15:28 29° NE 20:19:23 13° ESE visible
29 Apr 4.5 21:52:39 10° NNW 21:57:44 51° WSW 21:59:35 35° SSW visible
30 Apr 4.0 21:14:22 10° NNW 21:19:39 83° WSW 21:22:17 30° SSE visible
30 Apr 6.2 22:58:23 10° WNW 23:00:44 13° W 23:02:28 11° WSW visible
